Domov               UVHVVR             MKGP            O straneh              
ZDRAVSTVENO VARSTVO RASTLIN
  MREŽA AGROMET. POSTAJ
 ► PROGNOSTIČNA OBVESTILA
AGROMETEOROLOŠKI PODATKI -
ARSO
OBVLADOVANJE TVEGANJ ZARADI
NEUGODNIH VREMENSKIH RAZMER
  ► NARAVNE NESREČE
  ► SUŠA/MOČA
  ► NAMAKANJE
  ► ŽLED (gozdarstvo)
KARTOGRAFSKI PRIKAZI
SPLETNE POVEZAVE
PROJEKTI IN PUBLIKACIJE

AGROMETEOROLOŠKA MREŽA: VREMENSKE POSTAJE IN FENOLOŠKA OPAZOVANJA

Pregled podatkov za lokacijo Savci, meteorološka postaja 27393

Pregled senzorjev na lokaciji

ID Ime Zadnja
vrednost
Datum
zadnje
spremembe
Tip
senzorja
942 Omočenost lista (U) 0 U 11.12.2017 09:48 A730WET
943 Temperatura 2 m (°C) 5,05 °C 11.12.2017 09:48 Generic -40 - +60 °C
944 Relativna vlaga 2 m (% RH) 85,47 % RH 11.12.2017 09:48 Generic 0 - 100 %
1378 Padavine (mm) 0,4 mm 11.12.2017 09:48 Generic 0.2 mm

Pregled podatkov zadnjih 24 ur

Zap.
št.
Datum in čas Savci
Omočenost
lista
Padavine Relativna
vlaga
2
m
Temperatura
2
m
0 11.12.2017 10:00 0 0,4 85,47 5,05
1 11.12.2017 09:30 0 0,6 86,37 4,93
2 11.12.2017 09:00 0 0,4 88,18 3,61
3 11.12.2017 08:30 0 0,2 93,33 2,08
4 11.12.2017 08:00 0 0,2 93,99 2,15
5 11.12.2017 07:30 0 0,6 91,67 3,3
6 11.12.2017 07:00 0 0,8 86,37 3,71
7 11.12.2017 06:30 0 0,6 88,57 3,32
8 11.12.2017 06:00 0 0,4 89,08 2,83
9 11.12.2017 05:30 0 0,6 90,4 2,91
10 11.12.2017 05:00 0 0,6 87,91 2,08
11 11.12.2017 04:30 0 0,2 94,21 1,39
12 11.12.2017 04:00 0 0,4 91,62 1,49
13 11.12.2017 03:30 1 0,4 92,77 1,56
14 11.12.2017 03:00 2 0,8 92,6 1,9
15 11.12.2017 02:30 0 1,2 91,92 2,15
16 11.12.2017 02:00 0 1 91,16 2,3
17 11.12.2017 01:30 1 90,16 2,42
18 11.12.2017 01:00 1,4 90,72 2,44
19 11.12.2017 00:30 1 90,13 2,3
20 11.12.2017 00:00 0,8 90,43 2,22
21 10.12.2017 23:30 1 1 89,72 2,22
22 10.12.2017 23:00 1 89,08 2,12
23 10.12.2017 22:30 1 88,64 1,95
24 10.12.2017 22:00 0,8 88,64 1,81
25 10.12.2017 21:30 0,6 88,13 1,88
26 10.12.2017 21:00 0,6 85,47 1,76
27 10.12.2017 20:30 0,2 83,98 1,93
28 10.12.2017 20:00 0,2 83,71 1,81
29 10.12.2017 19:30 0 0 84,44 1,27
30 10.12.2017 19:00 0 0 82,37 1,9
31 10.12.2017 18:30 0,2 77,07 2,1
32 10.12.2017 18:00 0 0 77,22 1,95
33 10.12.2017 17:30 0 0 76,92 1,59
34 10.12.2017 17:00 0 0 78,36 1,25
35 10.12.2017 16:30 0 0 80,9 0,93
36 10.12.2017 16:00 0 0 82,25 0,73
37 10.12.2017 15:30 0 0 81,39 0,88
38 10.12.2017 15:00 0,2 79,95 0,73
39 10.12.2017 14:30 0 0 80,37 0,63
40 10.12.2017 14:00 0 0 76,8 0,83
41 10.12.2017 13:30 0,2 75,63 0,78
42 10.12.2017 13:00 0 0 79,05 -0,07
43 10.12.2017 12:30 0 0 76,39 -0,15
44 10.12.2017 12:00 0 0 75,6 -0,63
45 10.12.2017 11:30 0,2 75,29 -1,32
46 10.12.2017 11:00 0 0 74,43 -1,66
© 2011 Ministrstvo za kmetijstvo, gozdarstvo in prehrano. Vse pravice pridržane.